Location: Aracati
(4.5667°S, 37.7667°W)
Time: 05:21:12
(UTC+00:00)

Daily predictions for brighter satellites

Satellite Brightness Start Highest point End
(mag) Time Altitude Azimuth Time Altitude Azimuth Time Altitude Azimuth
ATLAS 5 CENTAUR R/B 3.9 05:30:35 38° SE 05:30:35 38° SE 05:35:02 10° SE
Cosmos 2263 Rocket 3.9 05:50:45 26° E 05:50:45 26° E 05:54:32 10° SE
ALOS 4.1 06:07:39 28° SE 06:07:39 28° SE 06:10:26 10° SSE
FENGYUN 3A 4.5 06:10:03 48° ESE 06:10:03 48° ESE 06:15:10 10° S
NOSS 0 Rocket 4.2 06:16:47 10° S 06:22:58 66° ESE 06:29:06 10° NNE
COSMOS 2455 4.4 06:24:54 20° NNE 06:27:56 30° ENE 06:33:04 10° SE
ARIANE 5 R/B 3.5 06:34:10 45° N 06:34:26 45° NNE 06:52:36 10° E
Cosmos 2227 4.1 06:35:47 82° N 06:36:04 89° ENE 06:41:50 10° SSE
Lacrosse 4 Rocket 4.2 06:33:55 10° SSE 06:36:40 18° ESE 06:39:25 10° ENE
BLOCK DM-SL R/B 3.4 06:37:23 60° N 06:37:28 60° N 06:43:58 10° E
Cosmos 2237 Rocket 2.7 06:32:06 10° S 06:37:38 57° ESE 06:43:08 10° NNE
Ariane H10+ 3.9 06:37:49 43° W 06:42:21 87° S 07:16:15 10° E
Sakura Rocket 4.2 06:48:32 39° N 06:49:36 44° NE 06:56:02 10° ESE
CZ-4B R/B 4.5 06:47:12 18° NNE 06:50:18 60° ESE 06:54:25 10° S
TSX-5 4.3 06:54:31 46° SSE 06:54:31 46° SSE 06:56:51 10° SSE
H-2A R/B 4.4 06:52:08 10° SE 06:55:30 22° ENE 06:58:55 10° NNE
ATLAS 2A CENTAUR R/B 3.8 06:54:41 18° N 06:57:37 28° NE 07:09:36 10° E
METEOR-M 4.0 06:55:56 32° N 06:58:23 65° WNW 07:03:42 10° SSW
GPS 2-15 Rocket1 4.5 06:57:38 20° SW 07:00:22 37° SSE 07:04:56 10° E
ARIANE 5 R/B 4.4 06:21:05 10° W 07:03:42 73° N 07:08:17 10° ENE
Meteor 1-31 Rocket 2.6 07:04:16 39° N 07:05:38 81° W 07:09:34 10° SSW
Cosmos 1674 3.2 07:06:32 42° SW 07:06:32 42° SW 07:09:21 10° S
Cosmos 1455 Rocket 3.5 07:02:31 10° S 07:06:54 61° E 07:11:13 10° NNE
ARIANE 5 R/B 3.3 07:02:15 25° W 07:07:29 88° S 07:11:13 10° E
Cosmos 1980 3.7 07:04:52 10° SSW 07:10:24 56° WNW 07:15:55 10° N
ATLAS 5 CENTAUR R/B 4.2 07:12:09 18° WSW 07:12:38 18° WSW 07:17:15 10° SSW
IRIDIUM 114 4.4 07:08:06 10° S 07:13:21 80° E 07:18:33 10° N
ADEOS Rocket 4.0 07:06:29 10° S 07:13:37 42° WSW 07:17:50 24° NW
SL-24 R/B - RUBIN 2 4.0 07:10:58 20° N 07:14:05 60° ENE 07:18:22 10° SSE
FALCON 9 DEB 3.1 07:12:03 20° SSW 07:14:05 68° ESE 07:17:11 10° NE
FALCON 9 DEB 3.6 07:12:19 10° SSW 07:15:28 55° SE 07:18:34 10° NE
ATLAS CENTAUR R/B 1.1 07:12:37 10° SSW 07:16:46 84° WNW 07:20:38 10° NNE
Delta 202 4.0 07:14:13 25° WSW 07:17:51 81° NNW 07:25:56 10° ENE
Cosmos 1777 Rocket 4.4 07:14:11 10° N 07:19:22 63° ENE 07:24:33 10° SSE
Cosmos 1953 3.5 07:16:24 10° SSE 07:20:16 44° E 07:24:05 10° NNE
Ariane H10 3.2 07:18:40 25° W 07:22:13 61° NNW 07:24:54 10° ENE
IRIDIUM 103 4.2 07:17:15 10° S 07:22:29 79° W 07:27:40 10° N
Cosmos 540 Rocket 3.5 07:17:53 10° SSW 07:22:50 52° WNW 07:27:45 10° N
BREEZE-M R/B 2.7 07:24:26 22° NNW 07:27:16 74° NE 07:30:11 10° SE
Landsat 5 3.6 07:22:59 10° S 07:27:31 74° WSW 07:31:56 10° NNW
Cosmos 1726 2.4 07:24:33 10° SSW 07:28:03 42° W 07:30:06 21° NNW
NOSS 3-2 (A) 3.0 07:22:59 10° SSW 07:28:21 62° WNW 07:33:37 10° NNE
Cosmos 1626 2.0 07:26:29 20° NNW 07:28:55 64° W 07:32:35 10° S
Meteor 2-5 Rocket 3.8 07:26:16 10° N 07:32:01 88° E 07:37:55 10° S
Cosmos 2263 Rocket 3.5 07:32:30 19° W 07:33:31 20° WSW 07:37:27 10° SSW
Cosmos 1536 Rocket 4.2 07:32:14 22° NW 07:34:23 34° W 07:38:25 10° SSW
CZ-4B R/B 4.2 07:32:53 10° SE 07:35:14 18° E 07:37:35 10° NNE
NOSS 3-2 (C) 3.3 07:32:31 10° SSW 07:37:57 76° ESE 07:43:16 10° NNE
Tsikada Rocket 4.3 07:35:24 10° NNW 07:41:13 45° W 07:47:08 10° SSW
USA 267 3.9 07:38:21 10° SE 07:44:42 53° NE 07:51:01 10° NNW
Meteor PRIRODA 3.7 07:42:38 10° N 07:46:09 50° W 07:49:43 10° SSW
deb Chang Zheng 4 4.2 07:45:07 10° NNW 07:48:52 32° WNW 07:52:40 10° SW
FALCON 9 DEB 3.5 07:47:26 10° SW 07:50:24 35° WNW 07:53:20 10° NNE
deb Ariane 3.0 07:55:05 10° W 07:59:46 53° S 08:02:09 10° ESE
SL-14 R/B 4.1 07:56:30 10° NNW 08:00:05 31° W 08:03:40 10° SSW
COSMO-SKYMED 1 3.7 07:56:11 10° SSE 08:00:22 47° ENE 08:04:31 10° N
SYLDA PLATFORM 4.3 07:58:00 11° WNW 08:01:29 35° N 08:05:15 10° ENE
ATLAS 2A CENTAUR R/B 4.3 07:59:18 10° NNW 08:02:27 35° NE 08:11:58 10° ESE
Meteor 1-24 Rocket 3.9 07:57:55 10° NNW 08:03:32 57° W 08:09:22 10° S
SMAP 4.4 08:01:04 10° NNE 08:05:29 44° ESE 08:09:55 10° S
CENTAUR R/B 2.2 08:01:32 10° SW 08:06:25 47° WNW 08:11:35 10° N
Spot 2 4.4 08:02:23 10° NNE 08:06:31 71° ESE 08:10:54 10° S
Cosmos 1844 3.8 08:02:01 10° NNW 08:07:46 88° ENE 08:13:30 10° SSE
SL-16 R/B 2.3 08:03:29 10° SSW 08:09:00 56° WNW 08:14:30 10° N
Cosmos 1892 Rocket 3.6 08:06:23 10° N 08:10:47 89° E 08:15:15 10° S
COSMOS 2455 4.1 08:09:08 10° WNW 08:13:35 22° WSW 08:18:04 10° SSW
Lacrosse 4 Rocket 2.9 08:12:34 10° WSW 08:15:03 16° WNW 08:17:33 10° NW
